Погода в Сан-Сальвадоре

Сальвадор     13°42′09″N   89°13′10″W
темп.,
°C
ветер,
м/с
пор.,
м/с
влажн.,
%
обл.,
%
осадки,
мм/ч
давл.,
гПа
погр.,
м
19 сентября, вс
вс1900:00+20юв009790 1.1 101412
03:00+19ссз119829 0.6 101323
06:00+19ссз1199100 0.6 101441
09:00+25с2276100 0.0 1014445
12:00+28с2261100 0.0 10121099
15:00+29в0257100 0.2 10091252
18:00+22ююз2196100 1.9 101235
21:00+20юз1196100 0.7 101414
20 сентября, пн
пн2000:00+20ссз0196100 0.9 101312
03:00+20ссз119847 0.2 101229
06:00+19с119896 0.2 101324
09:00+25с1274100 0.0 1014550
12:00+28с126910 0.4 1012981
15:00+29ссв12673 1.2 1009890
18:00+22ююз1196100 3.6 101128
21:00+21юз119899 1.2 101320
21 сентября, вт
вт2100:00+20ссз1199100 6.5 101326
03:00+20ссз1199100 0.7 101239
06:00+19ссз119985 0.7 101342
09:00+25с1275100 0.0 1015533
12:00+26юз017772 1.5 1013821
15:00+25ю2286100 2.1 1011435
18:00+22ююз119695 5.0 101223
21:00+20ююз11979 5.1 101414
22 сентября, ср
ср2200:00+20ссз11986 5.8 101420
03:00+19ссз119917 0.0 101236
06:00+19ссз119861 0.0 101437
09:00+24с127397 0.0 1015504
12:00+28с116122 0.3 10131170
15:00+28ююв116122 0.8 10101247
18:00+21ююз1194100 3.1 101111
21:00+21юз119674 1.6 101315
23 сентября, чт
чт2300:00+20ссз119895 1.8 101317
03:00+19ссз119886 0.0 101230
06:00+18ссз11977 0.0 101326
09:00+25с116813 0.0 1014585
12:00+29с11517 0.0 10111545
15:00+28ю115729 0.2 10081375
18:00+21ююз229733 1.9 101146
21:00+20ююз119881 1.5 101315